TimeWET,TemperatureF,Dew PointF,Humidity,Sea Level PressureIn,VisibilityMPH,Wind Direction,Wind SpeedMPH,Gust SpeedMPH,PrecipitationIn,Events,Conditions,WindDirDegrees,DateUTC
12:00 AM,71.6,55.4,57,30.15,-9999.0,SW,4.6,-,N/A,,Clear,230,2011-10-10 00:00:00
12:30 AM,71.6,55.4,57,30.15,-9999.0,WSW,3.5,-,N/A,,Clear,250,2011-10-10 00:30:00
1:00 AM,71.6,53.6,53,30.15,-9999.0,SSW,1.2,-,N/A,,Clear,210,2011-10-10 01:00:00
1:30 AM,69.8,53.6,56,30.15,-9999.0,ESE,3.5,-,N/A,,Clear,110,2011-10-10 01:30:00
2:00 AM,68.0,53.6,60,30.15,-9999.0,ESE,2.3,-,N/A,,Clear,110,2011-10-10 02:00:00
2:30 AM,69.8,50.0,49,30.12,-9999.0,SE,3.5,-,N/A,,Clear,130,2011-10-10 02:30:00
3:00 AM,67,49,41,30.09,6,East,4.6,,,,,90,2011-10-10 03:00:00
3:00 AM,68.0,50.0,52,30.12,6.2,East,4.6,-,N/A,,Unknown,90,2011-10-10 03:00:00
3:30 AM,68.0,50.0,52,30.12,-9999.0,ENE,3.5,-,N/A,,Clear,70,2011-10-10 03:30:00
4:00 AM,66.2,48.2,52,30.12,-9999.0,East,5.8,-,N/A,,Clear,90,2011-10-10 04:00:00
4:30 AM,66.2,48.2,52,30.12,-9999.0,Variable,1.2,-,N/A,,Clear,0,2011-10-10 04:30:00
5:00 AM,66.2,48.2,52,30.12,-9999.0,ENE,4.6,-,N/A,,Clear,70,2011-10-10 05:00:00
5:30 AM,64.4,48.2,56,30.12,-9999.0,East,5.8,-,N/A,,Clear,100,2011-10-10 05:30:00
6:00 AM,64,48,45,30.11,6,ENE,2.3,,,,,60,2011-10-10 06:00:00
6:00 AM,64.4,48.2,56,30.12,-9999.0,ENE,2.3,-,N/A,,Clear,60,2011-10-10 06:00:00
6:30 AM,64.4,48.2,56,30.15,-9999.0,Calm,Calm,-,N/A,,Clear,0,2011-10-10 06:30:00
7:00 AM,66.2,46.4,49,30.15,-9999.0,ESE,3.5,-,N/A,,Clear,110,2011-10-10 07:00:00
7:30 AM,69.8,48.2,46,30.15,4.3,East,3.5,-,N/A,,Unknown,90,2011-10-10 07:30:00
8:00 AM,73.4,46.4,38,30.18,3.7,ESE,4.6,-,N/A,,Unknown,110,2011-10-10 08:00:00
8:30 AM,77.0,48.2,36,30.18,-9999.0,East,3.5,-,N/A,,Clear,90,2011-10-10 08:30:00
9:00 AM,81,47,20,30.12,6,SE,3.5,,,,,130,2011-10-10 09:00:00
9:00 AM,80.6,48.2,32,30.18,-9999.0,SE,3.5,-,N/A,,Clear,130,2011-10-10 09:00:00
9:30 AM,84.2,48.2,29,30.21,-9999.0,ENE,3.5,-,N/A,,Clear,70,2011-10-10 09:30:00
10:00 AM,86.0,48.2,27,30.21,6.2,East,3.5,-,N/A,,Partly Cloudy,90,2011-10-10 10:00:00
10:30 AM,89.6,48.2,24,30.21,6.2,Variable,2.3,-,N/A,,Partly Cloudy,0,2011-10-10 10:30:00
11:00 AM,91.4,46.4,21,30.18,5.0,Variable,3.5,-,N/A,,Partly Cloudy,0,2011-10-10 11:00:00
11:30 AM,93.2,48.2,21,30.18,5.0,NW,3.5,-,N/A,,Partly Cloudy,320,2011-10-10 11:30:00
11:45 AM,94,45,11,30.07,5,NNW,5.8,,,,Scattered Clouds,340,2011-10-10 11:45:00
12:00 PM,93.2,44.6,19,30.18,5.0,NNW,5.8,-,N/A,,Partly Cloudy,340,2011-10-10 12:00:00
12:30 PM,95.0,42.8,16,30.18,3.7,North,5.8,-,N/A,,Partly Cloudy,10,2011-10-10 12:30:00
1:00 PM,96.8,41.0,15,30.15,3.7,NNW,5.8,-,N/A,,Partly Cloudy,340,2011-10-10 13:00:00
1:30 PM,96.8,42.8,16,30.15,3.7,Variable,4.6,-,N/A,,Partly Cloudy,0,2011-10-10 13:30:00
2:00 PM,96.8,41.0,15,30.15,3.7,NNW,8.1,-,N/A,,Partly Cloudy,340,2011-10-10 14:00:00
2:30 PM,96.8,41.0,15,30.12,3.7,NNW,9.2,-,N/A,,Partly Cloudy,340,2011-10-10 14:30:00
3:00 PM,97,40,7,30.01,6,North,5.8,,,,Partly Cloudy,0,2011-10-10 15:00:00
3:00 PM,96.8,41.0,15,30.12,6.2,North,5.8,-,N/A,,Scattered Clouds,360,2011-10-10 15:00:00
3:30 PM,98.6,41.0,14,30.12,6.2,North,4.6,-,N/A,,Scattered Clouds,360,2011-10-10 15:30:00
4:00 PM,96.8,41.0,15,30.12,6.2,SW,4.6,-,N/A,,Scattered Clouds,230,2011-10-10 16:00:00
4:30 PM,96.8,39.2,14,30.12,6.2,WSW,6.9,-,N/A,,Scattered Clouds,250,2011-10-10 16:30:00
7:00 PM,87.8,39.2,18,30.15,5.0,NE,4.6,-,N/A,,Scattered Clouds,50,2011-10-10 19:00:00
7:30 PM,86.0,41.0,20,30.18,5.0,NNE,5.8,-,N/A,,Scattered Clouds,20,2011-10-10 19:30:00
8:00 PM,86.0,46.4,25,30.18,5.0,North,12.7,-,N/A,,Scattered Clouds,350,2011-10-10 20:00:00
8:30 PM,84.2,44.6,25,30.21,3.1,NNE,9.2,-,N/A,,Scattered Clouds,20,2011-10-10 20:30:00
9:00 PM,84.2,44.6,25,30.21,3.1,NNE,8.1,-,N/A,,Scattered Clouds,20,2011-10-10 21:00:00
9:30 PM,82.4,44.6,26,30.21,3.1,NNE,3.5,-,N/A,,Scattered Clouds,30,2011-10-10 21:30:00
10:00 PM,82.4,42.8,25,30.24,3.1,SE,5.8,-,N/A,,Scattered Clouds,130,2011-10-10 22:00:00
10:30 PM,80.6,46.4,30,30.24,3.1,SW,6.9,-,N/A,,Partly Cloudy,220,2011-10-10 22:30:00
11:00 PM,78.8,44.6,30,30.24,3.1,SW,8.1,-,N/A,,Unknown,230,2011-10-10 23:00:00
11:30 PM,77.0,46.4,34,30.24,3.1,SW,3.5,-,N/A,,Unknown,230,2011-10-10 23:30:00